Wind_Speed
29 28 28 28 28 29 30 31 33 34 36 39 39 40 40 41 42 42 43 45 47 47 46 45 44 43 43 43 43 42 43 42 42 41 39 37 37 37 37 37 37 36 35 35
28 28 28 28 28 29 31 33 36 38 41 43 44 44 44 45 44 44 45 46 48 49 50 49 48 46 45 44 44 43 43 43 43 42 41 39 38 38 37 37 37 36 35 35
29 28 27 28 29 31 33 36 39 42 44 46 49 50 48 48 46 47 48 48 49 50 51 51 50 49 46 46 45 44 43 43 44 43 42 40 38 38 37 37 37 36 36 37
29 28 29 30 31 34 36 39 42 44 47 49 50 54 50 50 48 47 48 51 52 52 52 52 52 50 48 47 46 45 44 44 44 43 42 41 39 38 37 37 37 37 37 37
30 30 30 31 33 36 38 40 43 46 48 51 51 55 52 51 51 49 49 52 54 55 54 53 53 52 50 49 47 46 45 44 44 43 42 41 39 37 37 37 37 37 38 38
31 31 31 32 34 36 38 41 43 46 48 51 50 54 53 50 52 52 52 52 54 56 56 54 54 53 52 51 50 48 45 43 43 43 42 40 38 37 37 37 37 37 38 38
31 31 32 33 34 36 37 39 42 45 47 49 49 52 50 48 51 53 54 54 54 56 58 57 55 54 53 52 50 48 45 43 42 42 41 40 39 38 37 37 37 38 38 39
31 30 30 31 32 33 34 36 38 42 45 47 49 50 46 45 49 52 54 54 54 54 55 57 56 54 54 52 50 48 45 43 42 41 40 39 38 37 37 37 37 38 39 39
29 28 28 28 28 29 31 33 36 41 44 47 48 47 44 42 46 49 51 50 51 52 53 56 56 54 54 52 50 48 45 44 43 41 40 39 38 37 37 38 38 38 39 39
25 24 24 24 26 28 31 33 35 39 43 46 45 42 39 37 39 42 45 47 47 48 50 53 55 54 53 51 50 48 46 45 44 42 41 39 38 37 37 38 38 38 38 39
23 21 20 21 23 26 29 30 33 37 40 43 44 38 35 34 35 36 38 40 42 44 46 50 54 53 51 50 49 48 46 45 44 42 40 39 37 37 37 37 38 38 38 39
20 18 17 19 21 24 25 27 31 34 37 39 41 34 30 30 30 30 31 34 36 39 43 48 51 51 50 48 47 46 45 45 43 42 40 38 37 37 37 38 38 38 39 39
18 16 15 16 19 21 22 24 28 32 34 35 37 32 26 26 25 25 26 28 30 34 40 45 49 48 47 45 45 44 44 43 42 41 39 37 37 37 37 38 38 39 39 39
16 14 13 15 18 20 20 22 24 28 30 29 27 24 21 21 20 19 19 21 24 30 36 42 45 45 44 43 43 43 42 42 40 39 37 37 36 37 37 38 38 39 39 39
14 12 12 13 15 17 18 18 19 21 23 23 19 18 16 14 13 12 13 15 20 27 35 39 41 41 40 40 40 41 40 39 38 36 36 35 36 36 37 37 38 38 38 39
12 10 9 10 12 12 12 14 16 17 17 18 17 15 11 7 6 3 6 11 18 26 33 36 37 37 37 37 37 37 37 36 35 34 34 34 34 35 36 36 36 37 38 41
11 9 7 6 8 8 10 12 13 13 13 14 14 12 8 4 4 7 10 13 19 25 29 32 33 33 33 32 32 33 33 32 32 32 32 32 33 33 34 34 35 37 40 42
10 8 5 4 5 6 8 10 11 10 10 10 9 8 8 8 9 12 16 18 21 24 26 28 29 29 29 29 29 29 29 29 29 29 29 30 30 31 32 34 36 38 41 44
10 6 4 2 3 4 7 8 8 7 7 7 7 6 7 8 10 14 16 18 19 20 22 23 23 24 24 24 24 24 24 25 25 25 26 27 28 30 32 34 37 39 42 45
10 7 4 2 1 3 5 7 7 5 5 5 4 5 6 7 10 13 15 17 17 17 18 18 18 19 19 20 20 21 21 21 22 23 24 25 27 29 32 35 37 40 43 46
11 9 6 3 1 2 4 6 6 5 5 5 3 5 7 8 9 10 12 13 14 14 15 16 16 16 16 16 16 17 18 19 20 21 23 25 27 30 33 36 38 41 44 47
12 10 8 5 3 1 3 5 5 4 4 4 5 5 6 7 8 8 9 10 11 12 12 13 13 13 13 14 14 15 16 17 19 20 23 25 28 31 34 37 40 42 45 48
13 12 9 7 5 3 2 3 3 2 2 2 2 4 4 6 7 7 8 9 9 9 10 10 10 10 11 11 12 13 15 16 18 21 23 26 29 32 35 38 41 44 46 49
14 13 11 9 7 5 4 3 2 2 1 1 1 2 4 4 5 7 8 8 7 7 7 8 8 9 9 10 11 12 14 16 19 22 25 28 31 34 37 40 42 45 47 49
14 13 11 10 8 7 6 5 4 3 2 2 3 3 4 4 5 5 6 6 5 5 6 6 7 7 8 9 11 13 16 18 21 24 27 30 33 35 38 41 43 45 47 49
14 13 12 10 9 9 8 7 7 6 5 4 4 4 4 5 5 5 5 5 5 5 5 6 7 7 9 10 13 15 18 20 23 26 29 31 34 37 39 41 44 46 48 50
Wind_Direction
219 223 227 233 238 244 248 252 256 259 261 262 263 265 266 265 263 261 259 257 256 255 253 250 247 243 242 242 242 243 244 246 248 250 252 254 256 257 257 257 257 257 257 257
223 228 234 240 246 251 255 259 261 263 265 266 266 266 267 267 266 263 259 256 255 253 251 249 247 244 242 241 242 242 244 245 247 249 251 253 255 256 257 258 258 259 259 258
230 234 241 247 252 257 261 265 267 269 269 271 271 268 267 267 266 264 262 258 254 251 249 247 246 244 242 240 241 242 243 245 246 249 251 252 253 255 256 257 258 259 259 259
237 241 248 254 259 264 267 270 272 273 274 274 273 273 268 268 265 263 261 258 254 250 247 245 244 242 240 239 239 240 242 244 246 248 250 251 253 253 254 255 257 258 260 261
241 247 253 259 264 268 272 274 276 277 277 276 276 276 271 270 267 262 258 256 254 251 247 243 241 239 238 236 236 237 240 242 244 246 249 251 253 254 254 255 257 259 261 262
246 251 257 263 268 272 275 278 279 280 280 279 279 278 275 272 270 265 260 255 252 250 247 242 239 237 235 234 234 235 236 239 242 244 247 250 252 253 254 255 257 259 261 263
248 255 260 266 271 275 278 281 283 283 283 282 281 279 279 274 270 267 262 256 251 247 245 242 237 235 234 233 232 233 234 236 239 242 245 248 251 253 255 256 257 260 262 264
248 255 263 269 273 277 280 283 286 287 288 288 286 285 283 276 270 267 263 258 251 247 243 240 236 233 231 230 230 231 232 233 236 240 243 246 250 253 255 257 258 260 262 265
249 255 262 268 274 277 281 285 287 289 290 290 290 291 286 279 271 267 264 259 252 246 241 237 233 230 228 227 227 228 229 230 233 237 241 244 249 252 255 257 259 261 264 267
249 255 262 269 274 278 282 288 292 293 295 296 296 297 294 285 275 267 262 258 252 244 239 233 229 226 224 223 224 224 225 227 230 234 238 243 247 252 255 258 260 263 266 270
250 255 262 269 274 281 287 292 293 294 297 299 300 301 299 287 276 267 260 255 248 241 234 227 223 221 220 220 220 221 223 225 229 233 238 242 248 252 256 259 262 265 269 273
248 253 260 268 276 284 290 294 295 297 299 299 300 305 301 288 277 266 257 249 243 236 227 220 216 214 215 215 216 218 220 224 228 232 237 242 247 252 256 260 264 268 272 276
245 252 259 268 279 286 292 295 297 299 300 302 302 308 302 293 282 269 257 245 235 225 216 211 207 207 208 210 212 215 218 222 227 232 237 243 248 253 257 262 266 271 275 278
242 252 263 272 282 292 299 303 304 304 305 309 311 310 304 299 287 274 258 236 220 211 203 199 197 199 202 205 208 212 216 221 226 232 238 244 250 255 259 264 269 273 276 279
239 249 261 274 285 295 306 309 311 312 313 316 323 316 307 296 288 273 246 221 205 196 191 188 189 192 197 201 206 210 215 220 226 233 239 246 252 256 261 266 270 274 277 281
232 243 259 279 293 306 317 319 317 318 320 323 324 324 317 309 307 275 209 185 178 179 178 179 182 187 192 198 204 209 215 221 228 235 242 248 253 258 263 267 271 275 280 284
229 241 253 279 300 317 330 332 329 329 328 330 333 337 338 348 59 102 125 145 157 163 167 171 177 182 188 195 202 209 216 223 230 238 244 249 254 259 264 269 273 279 283 287
225 234 248 276 305 335 350 350 345 344 343 347 357 6 24 57 91 106 117 130 140 148 157 164 172 180 187 195 203 211 218 225 233 239 244 249 255 261 267 272 278 283 287 290
216 223 240 274 319 358 4 2 5 7 1 4 15 36 53 73 92 107 116 125 133 142 151 161 170 179 188 196 204 212 219 226 233 239 246 252 259 266 272 278 282 286 290 293
213 218 225 258 347 22 10 9 12 18 16 22 36 71 88 97 101 111 121 127 133 141 150 158 167 177 186 195 204 212 220 228 236 244 252 259 266 273 278 283 287 290 293 295
215 217 223 234 262 18 8 10 20 38 44 47 79 112 118 118 117 119 125 133 140 149 156 163 171 180 190 199 208 218 227 236 245 253 261 268 274 279 284 287 290 293 295 297
214 216 218 226 232 289 354 2 11 31 47 61 84 109 127 134 137 138 142 145 152 161 166 172 181 190 199 209 219 229 239 248 257 265 271 276 281 285 288 291 293 295 298 300
213 214 220 227 232 244 287 331 353 11 49 67 107 128 129 135 144 151 156 158 165 174 181 186 194 204 214 223 235 247 255 263 269 274 279 283 286 289 291 294 297 299 301 302
217 218 223 228 234 240 252 268 286 306 299 244 196 173 174 165 162 163 167 172 180 187 194 204 214 223 234 245 254 263 269 274 278 283 286 288 291 293 296 298 300 302 303 305
220 220 224 228 230 231 236 241 249 251 250 250 229 214 194 191 191 190 193 204 205 202 208 219 231 242 252 261 268 275 280 284 287 290 292 294 296 298 300 302 303 305 306 308
222 223 226 229 230 232 233 235 239 239 242 239 235 222 210 210 212 209 209 212 216 222 229 238 247 257 269 277 283 287 290 292 294 296 297 299 300 302 303 305 306 308 309 311
Height
5691 5696 5699 5701 5704 5707 5709 5710 5712 5713 5713 5714 5717 5719 5720 5720 5721 5722 5722 5723 5723 5725 5728 5730 5733 5736 5739 5742 5745 5748 5750 5752 5753 5755 5757 5759 5760 5761 5762 5762 5762 5762 5763 5763
5686 5689 5692 5694 5697 5699 5700 5701 5702 5703 5702 5703 5706 5708 5710 5709 5710 5710 5710 5711 5712 5713 5715 5718 5721 5725 5729 5733 5736 5739 5742 5744 5746 5747 5749 5751 5752 5753 5754 5755 5755 5755 5756 5755
5679 5684 5685 5688 5689 5691 5692 5693 5692 5692 5692 5692 5692 5696 5699 5698 5698 5698 5697 5697 5698 5700 5702 5705 5709 5713 5718 5723 5727 5730 5733 5735 5737 5739 5741 5743 5744 5745 5746 5747 5748 5748 5748 5748
5673 5676 5679 5680 5681 5682 5683 5683 5682 5681 5680 5681 5680 5678 5688 5685 5685 5684 5682 5681 5682 5685 5688 5692 5696 5701 5707 5712 5716 5721 5724 5726 5729 5731 5733 5735 5737 5738 5739 5739 5740 5740 5741 5740
5667 5669 5671 5673 5673 5673 5674 5673 5672 5670 5667 5667 5668 5662 5670 5670 5670 5669 5667 5665 5666 5669 5673 5678 5683 5688 5694 5699 5704 5709 5713 5717 5720 5723 5725 5727 5729 5731 5731 5732 5732 5733 5733 5733
5660 5662 5664 5665 5665 5665 5664 5664 5661 5658 5655 5655 5656 5647 5652 5656 5651 5649 5649 5649 5650 5652 5658 5664 5669 5675 5681 5686 5692 5698 5703 5707 5711 5714 5717 5720 5722 5722 5723 5724 5725 5725 5725 5725
5654 5655 5656 5657 5657 5657 5656 5654 5651 5647 5644 5643 5640 5634 5638 5639 5633 5629 5629 5631 5633 5637 5642 5649 5656 5662 5669 5675 5682 5688 5694 5698 5702 5706 5709 5712 5714 5715 5716 5716 5717 5717 5717 5717
5647 5649 5650 5650 5650 5649 5647 5645 5642 5637 5632 5628 5623 5620 5624 5621 5615 5610 5609 5612 5615 5621 5626 5633 5641 5649 5656 5664 5671 5678 5684 5689 5694 5698 5701 5704 5706 5708 5709 5709 5710 5710 5710 5709
5640 5643 5643 5643 5642 5641 5638 5636 5632 5627 5621 5615 5610 5607 5606 5603 5597 5593 5592 5593 5597 5603 5610 5618 5626 5635 5644 5652 5660 5668 5674 5680 5685 5689 5693 5696 5698 5700 5701 5702 5702 5702 5701 5700
5633 5636 5636 5635 5634 5633 5631 5628 5623 5616 5609 5603 5598 5594 5591 5586 5580 5577 5576 5577 5580 5586 5594 5602 5612 5622 5632 5641 5649 5657 5664 5670 5676 5681 5685 5688 5691 5693 5694 5695 5695 5694 5693 5692
5627 5629 5630 5630 5628 5625 5624 5621 5614 5608 5601 5594 5586 5585 5579 5572 5566 5563 5562 5562 5565 5571 5579 5588 5598 5610 5621 5630 5640 5648 5655 5662 5668 5673 5677 5681 5684 5685 5687 5687 5687 5686 5685 5683
5621 5623 5624 5624 5622 5619 5616 5613 5607 5601 5594 5585 5576 5575 5570 5561 5554 5551 5549 5549 5551 5557 5565 5575 5586 5599 5611 5622 5632 5641 5648 5655 5660 5665 5670 5673 5676 5678 5679 5680 5679 5678 5677 5675
5615 5618 5619 5618 5618 5614 5610 5606 5600 5593 5586 5578 5570 5566 5560 5552 5546 5541 5539 5538 5540 5546 5554 5565 5577 5591 5604 5615 5625 5634 5641 5648 5654 5659 5663 5667 5669 5671 5672 5672 5671 5670 5668 5666
5611 5613 5614 5614 5610 5606 5603 5600 5593 5586 5579 5572 5565 5559 5554 5545 5539 5535 5532 5531 5533 5540 5549 5560 5572 5586 5599 5609 5619 5628 5635 5642 5648 5653 5657 5660 5662 5664 5664 5664 5663 5662 5660 5657
5606 5608 5608 5607 5604 5601 5598 5594 5589 5582 5576 5569 5563 5555 5549 5542 5537 5533 5530 5529 5532 5538 5548 5559 5571 5584 5596 5606 5615 5623 5631 5637 5643 5648 5651 5654 5656 5657 5657 5656 5655 5653 5651 5648
5602 5604 5604 5603 5600 5597 5594 5590 5585 5579 5574 5568 5561 5555 5549 5543 5537 5533 5531 5532 5535 5542 5551 5561 5573 5585 5595 5604 5613 5621 5627 5634 5639 5643 5646 5648 5649 5649 5649 5648 5647 5645 5642 5639
5599 5600 5600 5599 5597 5594 5591 5587 5582 5577 5573 5568 5562 5557 5551 5546 5542 5539 5538 5540 5543 5550 5557 5567 5577 5586 5595 5604 5611 5618 5625 5630 5634 5637 5640 5641 5642 5642 5642 5641 5639 5637 5633 5630
5596 5596 5596 5596 5595 5592 5591 5585 5581 5576 5573 5568 5564 5560 5556 5552 5549 5547 5548 5550 5554 5559 5566 5573 5581 5589 5597 5604 5611 5617 5622 5626 5630 5632 5634 5635 5636 5635 5634 5633 5631 5628 5624 5620
5592 5593 5593 5593 5592 5590 5589 5584 5580 5577 5575 5571 5568 5564 5562 5559 5557 5557 5558 5560 5564 5568 5573 5579 5586 5592 5599 5605 5610 5615 5619 5623 5625 5627 5628 5629 5629 5628 5627 5625 5622 5619 5615 5610
5589 5590 5591 5591 5590 5589 5589 5585 5581 5580 5577 5574 5571 5569 5568 5567 5567 5567 5567 5569 5572 5576 5580 5585 5590 5595 5600 5605 5609 5613 5616 5619 5621 5622 5623 5623 5622 5621 5619 5617 5613 5610 5605 5599
5586 5588 5589 5589 5588 5588 5588 5585 5583 5582 5580 5577 5575 5574 5573 5573 5573 5574 5574 5576 5579 5582 5585 5589 5593 5597 5601 5604 5608 5611 5613 5615 5616 5617 5617 5617 5615 5614 5611 5608 5604 5600 5595 5589
5584 5585 5587 5587 5587 5590 5587 5585 5584 5583 5580 5579 5578 5577 5577 5577 5578 5578 5580 5581 5583 5586 5588 5591 5594 5597 5600 5603 5606 5608 5610 5611 5611 5612 5611 5610 5608 5606 5603 5599 5595 5590 5584 5578
5581 5584 5584 5586 5589 5587 5586 5585 5584 5583 5582 5581 5581 5580 5580 5580 5581 5582 5583 5585 5586 5588 5591 5593 5595 5597 5600 5602 5604 5605 5606 5606 5607 5606 5605 5603 5601 5598 5594 5590 5585 5580 5574 5567
5579 5580 5582 5583 5585 5585 5585 5585 5584 5584 5583 5583 5582 5582 5582 5583 5583 5584 5586 5587 5588 5590 5591 5593 5595 5597 5598 5600 5601 5602 5602 5602 5601 5600 5599 5596 5593 5590 5585 5580 5575 5569 5563 5556
5576 5577 5579 5581 5582 5583 5583 5584 5584 5584 5583 5583 5583 5583 5584 5584 5585 5586 5587 5588 5589 5590 5591 5593 5594 5595 5596 5597 5598 5598 5598 5597 5596 5594 5592 5589 5585 5581 5576 5570 5565 5558 5552 5544
5573 5575 5577 5578 5580 5581 5581 5582 5582 5583 5583 5583 5583 5583 5584 5584 5585 5586 5587 5588 5589 5590 5590 5591 5592 5593 5594 5594 5594 5594 5593 5592 5590 5587 5584 5580 5576 5572 5566 5560 5554 5547 5540 5533